SCP
0 0 0 0 0 0 0 0 0 0 0 1 1 1 1 1 0 0 0 0 0 0 0 0 0 0 0 0 0 0 0 0 0 0 0 0 0 0 0 0 0 0 0
0 0 0 0 0 0 0 0 0 0 0 1 1 1 1 1 1 0 0 0 0 0 0 0 0 0 0 0 0 0 0 0 0 0 0 0 0 0 0 0 0 0 0
0 0 0 0 0 0 0 0 0 0 0 0 1 1 1 1 1 1 1 0 0 0 0 0 0 0 0 0 0 0 0 0 0 0 0 0 0 0 0 0 0 0 0
0 0 0 0 0 0 0 0 0 0 0 0 0 1 1 1 1 1 1 0 0 0 0 0 0 0 0 0 0 0 0 0 0 0 0 0 0 0 0 0 0 0 0
0 0 0 0 0 0 0 0 0 0 0 0 0 1 1 1 1 1 1 1 0 0 0 0 0 0 0 0 0 0 0 0 0 0 0 0 0 0 0 0 0 0 0
0 0 0 0 0 0 0 0 0 0 0 0 0 0 0 1 1 1 1 0 0 0 0 0 0 0 0 0 0 0 0 0 0 0 0 0 0 0 0 0 0 0 0
0 0 0 0 0 0 0 0 0 0 0 0 0 0 0 0 0 0 0 0 0 0 0 0 0 0 0 0 0 0 0 0 0 0 0 0 0 0 0 0 0 0 0
0 0 0 0 0 0 0 0 0 0 0 0 0 0 0 0 0 0 0 0 0 0 0 0 0 0 0 0 0 0 0 0 0 0 0 0 0 0 0 0 0 0 0
0 0 0 0 0 0 0 0 0 0 0 0 0 0 0 0 0 0 0 0 0 0 0 0 0 0 0 0 0 0 0 0 0 0 0 0 0 0 0 0 0 0 0
0 0 0 0 0 0 0 0 0 0 0 0 0 0 0 0 0 0 0 0 0 0 0 0 0 0 0 0 0 0 0 0 0 0 0 0 0 0 0 0 0 0 0
0 0 0 0 0 0 0 0 0 0 0 0 0 0 0 0 0 0 0 0 0 0 0 0 0 0 0 0 0 0 0 0 0 0 0 0 0 0 0 0 0 0 0
0 0 0 0 0 0 0 0 0 0 0 0 0 0 0 0 0 0 0 0 0 0 0 0 0 0 0 0 0 0 0 0 0 0 0 0 0 0 0 0 0 0 0
0 0 0 0 0 0 0 0 0 0 0 0 0 0 0 0 0 0 0 0 0 0 0 0 0 0 0 0 0 0 0 0 0 0 0 0 0 0 0 0 0 0 0
0 0 0 0 0 0 0 0 0 0 0 0 0 0 0 0 0 0 0 0 0 0 0 0 0 0 0 0 0 0 0 0 0 0 0 0 0 0 0 0 0 0 0
0 0 0 0 0 0 0 0 0 0 0 0 0 0 0 0 0 0 0 0 0 0 0 0 0 0 0 0 0 0 0 0 0 0 0 0 0 0 0 0 0 0 0
0 0 0 0 -0 -0 0 0 0 0 0 0 0 0 0 0 0 0 0 0 0 0 0 0 0 0 0 0 0 0 0 0 0 0 0 0 0 0 0 0 0 0 0
0 0 0 0 0 -0 0 0 0 0 0 0 0 0 0 0 0 0 0 0 0 0 0 0 0 0 0 0 0 0 0 0 0 0 0 0 0 0 0 0 0 0 0
0 0 0 0 0 0 0 0 0 0 -0 0 0 0 0 0 0 0 0 0 0 0 0 0 0 0 0 0 0 0 0 0 0 0 0 0 0 0 0 0 0 0 0
0 0 0 0 0 0 0 0 0 0 0 0 0 0 0 0 0 0 0 0 0 0 0 0 0 0 0 0 0 0 0 0 0 0 0 0 0 0 0 0 0 0 0
0 0 0 0 0 0 0 0 0 0 0 0 0 0 0 0 0 0 0 0 0 0 0 0 0 0 0 0 0 0 0 0 0 0 0 0 0 0 0 0 0 0 0
0 0 0 0 0 0 0 0 0 0 0 0 0 0 0 0 0 0 0 0 0 0 0 0 0 0 0 0 0 0 0 0 0 0 0 0 0 0 0 0 0 0 0
0 0 0 0 0 0 0 0 0 0 0 0 0 0 0 0 0 0 0 0 0 0 0 0 0 0 0 0 0 0 0 0 0 0 0 0 0 0 0 0 0 0 0
0 0 0 0 0 0 0 0 0 0 0 0 0 0 0 0 0 0 0 0 0 0 0 0 0 0 0 0 0 0 0 0 0 0 0 0 0 0 0 0 0 0 0
0 0 0 0 0 0 0 0 0 0 0 0 0 0 0 0 0 0 0 0 0 0 0 0 0 0 0 0 0 0 0 0 0 0 0 0 0 0 0 0 0 0 0
0 0 0 0 0 0 0 0 0 0 0 0 0 0 0 0 0 0 0 0 0 0 0 0 0 0 0 0 0 0 0 0 0 0 0 0 0 0 0 0 0 0 0
0 0 0 0 0 0 0 0 0 0 0 0 0 0 0 0 0 0 0 0 0 0 0 0 0 0 0 0 0 0 0 0 0 0 0 0 0 0 0 0 0 0 0
Wind_Speed
12 12 12 11 10 10 10 10 9 7 3 1 2 3 4 4 4 4 6 6 5 6 6 5 5 5 4 4 4 3 3 2 2 3 2 2 2 2 2 3 4 5 6
14 14 14 13 11 9 9 9 9 8 5 2 2 3 3 2 3 3 4 5 5 5 5 6 5 5 4 4 4 3 3 1 2 3 2 1 4 3 1 2 4 5 5
15 14 14 12 11 10 9 8 8 8 7 5 2 1 1 1 1 2 2 3 4 5 5 5 4 4 4 4 4 4 4 3 1 2 4 3 3 3 3 1 2 4 4
14 13 13 13 13 11 9 9 8 8 6 5 2 2 3 4 5 3 3 3 3 5 6 5 4 3 3 3 3 3 2 3 2 2 2 2 3 2 2 3 2 2 4
14 13 12 12 11 10 9 8 8 8 7 5 3 2 2 3 3 4 6 4 3 4 5 5 4 3 2 3 3 3 3 2 3 3 2 2 1 2 2 2 2 2 2
13 12 11 11 10 9 8 8 8 8 7 6 4 2 1 3 5 5 6 4 3 3 4 4 4 4 3 3 3 3 4 3 2 2 2 3 3 3 3 4 3 2 3
12 11 12 11 10 9 9 7 7 7 7 6 5 3 2 3 4 5 5 5 3 2 4 4 3 3 2 2 3 3 3 3 3 3 3 3 4 3 3 3 3 3 2
11 10 11 9 9 9 8 7 7 7 7 6 6 5 3 2 2 3 3 3 2 2 3 3 2 2 3 2 2 2 3 3 3 4 4 3 3 3 4 4 4 2 2
12 11 10 10 9 8 7 6 6 6 7 6 5 5 5 4 4 4 3 2 2 2 2 2 1 1 2 1 2 2 3 3 3 4 4 3 3 3 3 3 4 4 3
12 12 10 10 8 7 7 7 7 6 6 6 6 5 5 4 3 3 3 2 1 1 1 1 1 1 1 2 2 2 2 3 3 3 3 3 2 2 3 3 3 3 4
12 11 10 9 8 8 8 8 8 7 7 7 6 6 5 5 5 4 3 2 2 1 0 1 1 1 2 2 2 3 3 3 2 2 2 3 2 2 2 2 2 3 3
9 10 10 9 9 9 8 8 8 8 7 7 7 7 6 6 6 5 4 3 3 2 1 1 1 1 1 0 1 3 3 3 3 2 2 2 2 2 2 2 2 2 3
7 7 8 8 8 8 8 8 8 8 8 7 7 8 8 8 7 7 6 6 5 4 4 3 3 3 3 2 1 1 1 2 2 2 3 2 2 2 1 2 2 2 2
7 7 6 7 7 7 7 7 8 7 7 7 8 9 9 8 7 7 7 7 6 7 6 6 5 4 3 3 3 2 1 0 1 2 2 2 3 3 2 1 1 1 1
7 7 6 6 6 7 7 7 7 7 7 8 8 8 7 7 8 8 7 7 7 8 6 6 5 4 3 4 4 2 1 1 2 3 2 1 3 4 3 2 2 2 2
7 7 6 5 6 6 6 6 7 7 6 7 8 7 8 8 8 7 7 7 7 6 6 5 5 5 5 7 6 3 2 2 3 3 2 1 2 3 4 4 4 4 3
6 6 5 4 3 4 4 5 5 5 6 7 7 7 7 7 7 7 7 7 6 6 6 5 5 4 5 8 7 5 2 2 2 3 2 2 2 3 2 3 3 2 2
5 5 5 4 3 3 3 4 5 5 6 6 6 6 6 6 6 6 7 6 5 5 5 5 5 5 8 11 8 7 4 4 3 2 3 3 2 2 3 3 2 2 2
3 3 3 2 2 2 2 4 4 5 5 5 5 5 5 6 6 6 6 5 5 5 5 5 6 7 8 13 10 8 4 4 5 4 3 3 2 2 5 4 4 3 3
3 3 3 2 2 1 2 4 3 4 4 3 3 4 4 5 5 5 5 4 4 5 5 7 7 7 7 12 12 9 4 5 4 4 4 5 5 5 6 4 4 4 2
3 3 3 2 2 1 1 2 2 2 1 2 3 4 4 5 5 5 5 5 5 6 6 7 7 7 9 12 14 11 4 4 4 3 3 4 6 7 7 6 3 3 3
4 3 3 3 3 2 0 1 1 1 1 3 4 4 5 5 5 6 6 6 6 6 6 6 6 6 7 10 11 13 10 6 4 3 3 4 9 10 10 7 7 9 7
4 3 2 3 4 3 1 1 2 1 2 3 3 4 5 5 5 6 6 5 5 5 5 5 6 6 6 8 13 13 12 10 5 5 8 10 12 10 9 12 12 8 5
4 3 3 4 4 4 3 2 1 2 4 4 3 3 4 4 5 5 5 5 5 5 5 5 5 5 5 6 6 5 5 8 7 5 8 12 14 10 9 9 8 6 5
3 3 4 4 4 3 3 2 1 4 4 4 3 3 3 3 4 4 4 4 4 3 3 3 3 3 5 6 8 5 4 4 4 5 6 6 6 7 6 6 6 6 5
3 4 5 4 4 2 2 2 2 4 5 3 3 2 2 2 2 3 3 6 5 6 7 5 4 3 5 8 11 13 12 12 10 8 6 6 5 5 5 5 5 5 5
Wind_Direction
6 7 9 8 12 11 9 2 352 343 339 276 215 201 201 188 184 187 179 175 166 166 164 160 155 147 148 157 149 131 129 125 120 89 34 340 317 252 217 193 184 194 197
1 1 2 3 3 2 2 356 347 337 329 302 250 215 192 181 182 181 171 169 158 152 164 158 158 151 144 146 144 138 140 149 135 128 109 349 332 314 283 186 188 201 196
353 352 353 351 351 353 353 350 338 333 328 321 307 264 124 101 147 165 163 163 152 146 145 153 150 149 149 161 166 158 153 162 177 152 147 160 221 287 313 289 204 195 194
346 344 346 344 343 342 344 344 340 335 329 321 293 225 197 193 189 173 153 141 133 132 131 136 141 149 158 169 174 162 156 154 174 188 189 171 160 172 288 318 316 226 203
341 339 339 337 335 337 342 342 341 343 338 332 310 255 219 202 164 148 141 139 134 124 127 134 134 144 167 182 176 160 164 166 175 179 172 170 179 171 171 259 302 320 262
337 336 335 338 337 341 344 345 345 346 347 351 350 352 148 158 151 152 153 152 143 127 133 139 146 153 159 177 179 180 177 176 191 195 183 176 179 190 183 209 238 260 277
334 338 337 336 339 345 348 350 355 352 354 3 10 20 62 125 146 149 151 152 150 147 148 147 147 142 158 186 173 173 187 187 198 203 204 204 206 179 175 183 210 235 277
341 343 340 337 341 348 348 353 359 0 4 12 16 21 39 75 92 108 125 141 147 144 145 148 158 169 186 192 180 181 203 196 206 215 210 208 210 191 184 176 168 194 274
348 347 345 351 351 351 353 355 3 8 10 15 23 28 39 64 78 86 90 97 113 135 137 142 175 208 207 199 190 205 215 204 209 207 199 202 208 200 196 182 171 168 200
349 351 354 356 356 358 4 10 17 18 17 21 28 40 42 57 69 74 75 72 57 69 107 154 175 198 209 210 201 218 223 199 202 192 179 188 191 188 186 182 178 172 175
347 352 355 356 1 11 18 18 19 21 23 25 30 37 39 44 52 60 61 66 63 66 114 188 180 237 220 209 193 207 194 181 197 192 181 201 190 184 186 176 174 179 173
347 352 355 359 8 15 18 18 19 24 24 26 34 36 34 39 43 42 40 44 46 39 22 26 7 302 307 282 211 212 198 185 185 193 176 208 186 186 190 182 192 192 189
347 352 359 3 7 10 13 17 20 21 19 22 31 36 34 35 37 36 36 38 40 38 32 41 36 28 26 19 352 220 202 191 192 188 182 192 162 178 178 182 192 198 190
351 355 0 2 5 8 12 16 18 17 21 25 32 37 35 34 36 37 37 39 46 50 42 44 46 50 45 34 30 31 35 81 192 187 177 172 158 160 156 153 162 150 143
358 359 2 2 6 13 17 20 21 21 25 31 35 33 29 31 36 39 36 37 42 49 47 50 46 46 49 37 32 39 58 73 88 91 90 127 148 148 144 134 137 129 118
356 355 2 14 15 17 20 22 23 20 27 35 34 32 34 34 34 34 37 40 40 40 48 51 47 38 33 30 34 42 76 94 111 119 103 92 87 108 105 111 129 143 138
356 0 2 10 12 16 27 26 20 27 34 35 33 32 35 36 32 35 38 36 33 36 41 40 39 31 17 26 31 44 71 85 112 134 140 122 90 88 89 80 66 61 93
351 352 356 5 11 29 38 36 35 38 38 33 30 28 33 34 29 32 33 28 27 33 34 31 28 29 22 28 37 50 65 70 67 92 128 123 103 105 121 110 84 46 33
335 338 352 17 31 39 48 54 39 35 38 32 28 26 32 34 30 28 24 21 31 34 32 28 28 29 16 25 40 54 61 70 58 56 74 96 90 90 124 115 104 73 33
341 349 353 20 32 12 60 63 40 34 30 27 28 31 39 41 35 28 24 23 32 34 35 36 30 29 20 24 40 53 68 73 63 48 44 54 72 81 102 108 110 99 62
334 351 6 356 324 293 89 67 34 13 3 40 42 38 37 43 39 36 31 31 37 38 35 35 28 26 22 23 36 46 59 74 73 58 39 34 61 73 81 88 91 102 104
336 347 356 342 323 310 101 63 311 286 55 63 54 47 38 42 45 45 38 32 36 40 32 29 26 19 14 19 28 42 52 65 77 65 46 49 66 69 68 69 73 82 84
338 339 344 340 332 326 288 253 268 210 106 86 75 63 57 47 43 49 43 36 34 40 34 33 31 15 9 12 26 37 48 57 68 67 70 68 63 61 58 57 63 65 69
337 341 351 346 328 320 323 288 272 137 118 110 104 88 78 62 49 47 45 46 37 36 36 35 28 14 11 10 9 19 36 48 58 60 62 64 62 58 53 50 49 49 58
328 337 341 330 318 315 327 344 58 118 112 112 116 109 95 91 72 59 46 45 37 37 50 37 22 21 16 5 26 48 45 48 62 70 59 53 50 51 46 45 45 44 47
331 337 336 330 324 333 334 352 63 124 124 121 132 142 131 119 109 95 60 34 38 42 50 50 47 22 32 45 54 58 59 61 71 73 66 60 56 54 50 51 47 42 42